Warning: Javascript must be enabled to use all the features on this page!


Page Loading - Please Wait...

Click to hideNews Bulletins

Peak Streamflow for the Nation

USGS 01463500 Delaware River at Trenton NJ

Mercer County, New Jersey
Hydrologic Unit Code 02040105
Latitude  40°13'18", Longitude  74°46'41" NAD83
Drainage area 6,780  square miles
Gage datum 0.00 feet above NGVD29
Output formats
Table
Graph
Tab-separated file
peakfq (watstore) format
Reselect output format
Water
Year
Date Gage
Height
(feet)
Stream-
flow
(cfs)
1898 1897-12-16   72,800
1899 1899-03-07   69,200
1900 1900-03-02   104,000
1901 1901-03-22   77,600
1902 1902-03-02 23.60 214,000
1903 1903-03-01   134,000
1904 1903-10-11 28.502 295,0002
1905 1905-03-28   88,500
1906 1906-04-16   112,000
1907 1907-01-26 16.801  
1908 1907-12-12 18.40  
1909 1909-02-21 17.70  
1910 1910-04-23 18.40  
1911 1911-01-05 15.60  
1912 1912-03-16 18.70  
1913 1913-03-28 21.10 160,000
1914 1914-03-29 20.20 143,000
1915 1915-02-26   85,0002
1916 1916-04-03 17.30 93,800
1917 1917-03-29 17.00 90,600
1918 1917-10-31 16.90 89,100
1919 1919-07-22 15.60 69,200
1920 1920-03-14 19.00 121,000
1921 1921-03-11 18.20 108,000
1922 1921-11-30 18.00 105,000
1923 1923-03-24 16.00 74,800
1924 1924-04-08 19.60 132,000
1925 1925-02-13 20.80 154,000
1926 1926-04-10 13.97 48,100
1927 1926-11-18 19.07 123,000
1928 1927-10-20 18.68 116,000
1929 1929-03-16 16.70 84,800
1930 1930-03-10 13.852 47,400
1931 1931-03-30 14.37 53,200
1932 1932-04-02 15.40 66,100
1933 1933-08-25 20.43 147,000
1934 1934-03-06 16.422 80,000
1935 1935-07-10 19.51 129,000
1936 1936-03-19 24.43 227,000
1937 1937-02-23 15.93 74,200
1938 1938-09-23 19.22 125,000
1939 1938-12-07 17.63 99,500
1940 1940-04-01 20.62 152,000
1941 1941-04-07 14.52 56,800
1942 1942-05-24 21.121 161,000
1943 1943-01-01 18.771 119,000
1944 1943-11-10 16.24 78,000
1945 1945-07-21 16.52 82,200
1946 1946-05-29 16.512 82,300
1947 1947-04-07 17.37 98,500
1948 1948-03-23 19.06 126,000
1949 1949-01-01 19.83 139,000
1950 1950-04-06 16.37 79,800
1951 1951-04-01 19.72 133,000
1952 1952-07-11 17.41 95,400
1953 1952-12-12 20.07 139,000
1954 1953-12-08 13.79 46,3005
1955 1955-08-20 28.60 329,0005
1956 1955-10-17 19.70 133,0005
1957 1957-04-07 16.18 77,5005
1958 1957-12-22 18.24 108,0005
1959 1959-01-23 16.70 84,8005
1960 1960-04-05 19.18 124,0005
1961 1961-02-27 17.49 96,6005
1962 1962-04-02 15.43 67,1005
1963 1963-03-28 16.87 87,3005
1964 1964-03-11 16.42 80,9005
1965 1965-02-08 13.99 48,7005
1966 1966-03-07 12.58 33,1005
1967 1967-03-07 13.88 47,5005
1968 1968-05-31 15.52 68,3005
1969 1969-07-29 16.58 83,1005
1970 1970-04-03 17.71 100,0005
1971 1971-08-28 15.38 66,4005
1972 1972-06-23 17.86 103,0005
1973 1973-06-30 19.78 135,0005
1974 1973-12-22 18.90 119,0005
1975 1975-02-26 17.35 94,6005
1976 1976-01-28 18.52 113,0005
1977 1977-03-15 18.75 117,0005
1978 1978-01-10 17.26 89,5005
1979 1979-01-25 18.70 117,0005
1980 1980-03-21 17.83 104,0005
1981 1981-02-13 16.17 79,9005
1982 1982-04-05 14.392 54,9005
1983 1983-04-17 19.89 138,0005
1984 1984-05-30 20.64 152,0005
1985 1985-09-28 16.68 87,2005
1986 1986-03-16 20.22 140,0005
1987 1987-04-06 17.43 90,7005
1988 1988-03-28 13.37 40,6005
1989 1989-05-07 16.95 83,3005
1990 1989-10-21 16.45 76,7005
1991 1990-11-12 15.50 64,9005
1992 1992-06-06 13.98 46,8005
1993 1993-04-02 18.63 109,0005
1994 1994-04-15 16.36 75,6005
1995 1995-03-10 14.20 49,3005
1996 1996-01-20 22.20 179,0005
1997 1996-12-03 17.87 101,0005
1998 1998-05-12 15.67 69,5005
1999 1999-09-16 18.53 112,0005
2000 2000-02-29 15.12 62,4005
2001 2000-12-19 16.45 80,1005
2002 2002-05-15 13.52 43,4005
2003 2003-03-22 16.66 83,1005
2004 2004-09-19 23.41 201,0005
2005 2005-04-04 25.33 242,0005
2006 2006-06-29 25.09 237,0005
2007 2007-04-17 18.82 116,0005
2008 2008-03-10 18.28 108,0005
2009 2008-12-13 17.16 90,4005
2010 2010-03-15 16.15 75,9005
2011 2011-09-08 23.11 195,0005
2012 2011-12-09 15.185 63,1002
2013 2012-12-22 15.06 61,6005
2014 2014-04-30 16.462 80,2005
2015 2015-07-02 13.462 41,5005
2016 2016-02-26 15.85 70,1005
2017 2017-04-08 15.73 68,5005
2018 2018-09-28 15.282 62,7005
2019 2019-01-26 15.552 66,2005
2020 2020-08-05 16.26 75,8005
?
  Peak Gage-Height Qualification Codes.
?
  Peak Streamflow Qualification Codes.